VA7VRN-8 Weather Reports


Display with metric or nautical units.
time (UTC)temp
F
wind
direction
speed
MPH
gust
MPH
rain 1hr
in
rain 24hr
in
rain mn
in
humidity
%
barometer
mb
20210227034351 31 90 3.0 5.0 0.00 0.00 0.00 61 1005.8
20210227034318 31 90 3.0 5.0 0.00 0.00 0.00 61 1005.8
20210227033308 31 225 5.0 5.0 0.00 0.00 0.00 61 1005.8
20210227032813 31 180 0.0 0.0 0.00 0.00 0.00 61 1005.7
20210227032255 32 180 0.0 0.0 0.00 0.00 0.00 61 1005.7
20210227031747 32 225 0.0 0.0 0.00 0.00 0.00 61 1005.7
20210227030229 32 135 0.0 0.0 0.00 0.00 0.00 61 1005.6
20210227025722 32 135 0.0 0.0 0.00 0.00 0.00 61 1005.6
20210227025321 33 90 3.0 3.0 0.00 0.00 0.00 61 1005.6
20210227024710 33 90 1.0 2.0 0.00 0.00 0.00 61 1005.6
20210227024204 33 90 0.0 0.0 0.00 0.00 0.00 60 1005.5
20210227023657 33 270 0.0 0.0 0.00 0.00 0.00 60 1005.4
20210227022719 33 315 0.0 0.0 0.00 0.00 0.00 60 1005.3
20210227022139 34 0 0.0 0.0 0.00 0.00 0.00 60 1005.2
20210227021635 34 0 0.0 0.0 0.00 0.00 0.00 60 1005.2
20210227021215 34 0 0.0 0.0 0.00 0.00 0.00 60 1005.1
20210227021128 34 0 0.0 0.0 0.00 0.00 0.00 60 1005.1
20210227020718 35 342 0.0 3.0 0.00 0.00 0.00 60 1005.0
20210227020620 35 342 0.0 3.0 0.00 0.00 0.00 60 1005.0
20210227020114 35 36 2.0 2.0 0.00 0.00 0.00 59 1005.0
20210227015609 35 36 0.0 0.0 0.00 0.00 0.00 59 1004.9
20210227015248 35 0 0.0 0.0 0.00 0.00 0.00 59 1004.9
20210227014607 35 0 0.0 0.0 0.00 0.00 0.00 59 1004.8
20210227014049 36 315 0.0 5.0 0.00 0.00 0.00 59 1004.8
20210227013543 36 0 3.0 4.0 0.00 0.00 0.00 59 1004.8
20210227013037 36 0 3.0 4.0 0.00 0.00 0.00 58 1004.7
20210227012702 36 342 1.0 6.0 0.00 0.00 0.00 58 1004.7
20210227012027 36 315 6.0 11.0 0.00 0.00 0.00 58 1004.7
20210227011537 37 292 8.0 8.0 0.00 0.00 0.00 58 1004.7
20210227011122 37 301 0.0 3.0 0.00 0.00 0.00 58 1004.6
20210227010617 37 270 0.0 0.0 0.00 0.00 0.00 58 1004.7
20210227010110 37 315 0.0 0.0 0.00 0.00 0.00 58 1004.6
20210227005604 38 274 0.0 0.0 0.00 0.00 0.00 57 1004.6
20210227005331 38 315 0.0 0.0 0.00 0.00 0.00 57 1004.6
20210227004552 38 0 0.0 0.0 0.00 0.00 0.00 57 1004.7
20210227004045 38 355 4.0 6.0 0.00 0.00 0.00 57 1004.6
20210227003541 38 351 5.0 9.0 0.00 0.00 0.00 56 1004.6
20210227003044 39 328 5.0 9.0 0.00 0.00 0.00 56 1004.6
20210227002721 39 9 6.0 11.0 0.00 0.00 0.00 56 1004.5
20210227002028 39 346 7.0 7.0 0.00 0.00 0.00 56 1004.5
20210227001527 39 355 4.0 6.0 0.00 0.00 0.00 55 1004.4
20210227000531 40 0 4.0 7.0 0.00 0.00 0.00 55 1004.3
20210226234945 41 342 6.0 6.0 0.00 0.00 0.00 54 1004.4
20210226234437 41 315 0.0 0.0 0.00 0.00 0.00 54 1004.4
20210226233932 41 315 0.0 2.0 0.00 0.00 0.00 54 1004.3
20210226233431 42 319 6.0 6.0 0.00 0.00 0.00 54 1004.4
20210226233044 42 0 2.0 7.0 0.00 0.00 0.00 53 1004.4
20210226232443 42 0 0.0 10.0 0.00 0.00 0.00 53 1004.4
20210226231906 42 319 6.0 7.0 0.00 0.00 0.00 53 1004.4
20210226230855 43 0 3.0 6.0 0.00 0.00 0.00 53 1004.4
20210226230348 43 315 8.0 9.0 0.00 0.00 0.00 53 1004.5
20210226225335 43 324 7.0 7.0 0.00 0.00 0.00 53 1004.5
20210226224832 43 315 0.0 0.0 0.00 0.00 0.00 53 1004.5
20210226224324 43 270 0.0 0.0 0.00 0.00 0.00 53 1004.5
20210226223819 43 270 0.0 0.0 0.00 0.00 0.00 53 1004.4
20210226223312 43 225 0.0 0.0 0.00 0.00 0.00 52 1004.5
20210226222938 44 225 0.0 0.0 0.00 0.00 0.00 52 1004.4
20210226222258 44 157 0.0 2.0 0.00 0.00 0.00 52 1004.4
20210226221752 44 90 4.0 6.0 0.00 0.00 0.00 53 1004.4
20210226221246 44 135 0.0 0.0 0.00 0.00 0.00 53 1004.4
20210226220740 44 13 0.0 4.0 0.00 0.00 0.00 53 1004.5
20210226220233 44 355 0.0 5.0 0.00 0.00 0.00 53 1004.5
20210226215728 44 54 3.0 3.0 0.00 0.00 0.00 54 1004.5
20210226215225 44 67 0.0 2.0 0.00 0.00 0.00 54 1004.6
20210226214757 44 40 8.0 8.0 0.00 0.00 0.00 55 1004.5
20210226214251 43 40 5.0 7.0 0.00 0.00 0.00 55 1004.5
20210226213742 43 319 5.0 5.0 0.00 0.00 0.00 55 1004.5
20210226213238 43 292 3.0 11.0 0.00 0.00 0.00 55 1004.6
20210226212922 43 283 11.0 13.0 0.00 0.00 0.00 55 1004.7
20210226212336 43 306 8.0 8.0 0.00 0.00 0.00 55 1004.8
20210226212029 43 324 0.0 8.0 0.00 0.00 0.00 55 1004.7
20210226211531 43 292 5.0 6.0 0.00 0.00 0.00 55 1004.9
20210226211020 43 319 8.0 8.0 0.00 0.00 0.00 55 1004.7
20210226210153 42 315 8.0 8.0 0.00 0.00 0.00 55 1004.8
20210226205757 42 315 0.0 6.0 0.00 0.00 0.00 55 1004.8
20210226205252 42 319 0.0 7.0 0.00 0.00 0.00 55 1004.8
20210226204747 42 315 4.0 5.0 0.00 0.00 0.00 56 1004.9
20210226204246 41 180 0.0 1.0 0.00 0.00 0.00 56 1005.0
20210226203734 41 90 0.0 5.0 0.00 0.00 0.00 55 1005.0
20210226203300 41 84 0.0 4.0 0.00 0.00 0.00 55 1005.0
20210226202737 41 45 0.0 0.0 0.00 0.00 0.00 56 1005.2
20210226202214 41 135 0.0 2.0 0.00 0.00 0.00 56 1005.1
20210226201717 41 189 1.0 7.0 0.00 0.00 0.00 55 1005.2
20210226200655 41 225 4.0 7.0 0.00 0.00 0.00 56 1005.2
20210226200150 41 315 0.0 0.0 0.00 0.00 0.00 56 1005.4
20210226195643 41 135 0.0 3.0 0.00 0.00 0.00 56 1005.3
20210226195138 41 135 0.0 0.0 0.00 0.00 0.00 57 1005.3
20210226194635 41 135 0.0 0.0 0.00 0.00 0.00 57 1005.3
20210226194127 41 180 0.0 6.0 0.00 0.00 0.00 57 1005.3
20210226193621 41 225 0.0 0.0 0.00 0.00 0.00 58 1005.2
20210226193316 41 225 0.0 0.0 0.00 0.00 0.00 58 1005.1
20210226192613 40 90 0.0 0.0 0.00 0.00 0.00 58 1005.1
20210226192101 40 315 0.0 0.0 0.00 0.00 0.00 58 1005.1
20210226191556 40 0 0.0 5.0 0.00 0.00 0.00 58 1005.0
20210226191048 41 36 3.0 6.0 0.00 0.00 0.00 58 1005.0
20210226190550 41 31 6.0 8.0 0.00 0.00 0.00 58 1005.0
20210226185530 40 36 3.0 6.0 0.00 0.00 0.00 59 1004.9
20210226185224 40 49 0.0 6.0 0.00 0.00 0.00 59 1004.9
20210226184525 40 346 0.0 8.0 0.00 0.00 0.00 59 1005.0
20210226184030 40 315 8.0 14.0 0.00 0.00 0.00 60 1004.9
20210226183514 40 342 8.0 10.0 0.00 0.00 0.00 60 1004.7
20210226182958 40 315 5.0 11.0 0.00 0.00 0.00 61 1004.8
20210226181945 39 18 7.0 7.0 0.00 0.00 0.00 61 1004.8
20210226181439 38 0 8.0 8.0 0.00 0.00 0.00 61 1004.8
20210226181033 38 4 0.0 4.0 0.00 0.00 0.00 61 1004.8
20210226180528 38 54 0.0 1.0 0.00 0.00 0.00 61 1004.6
20210226180036 38 270 0.0 0.0 0.00 0.00 0.00 61 1004.6
20210226175530 38 135 0.0 0.0 0.00 0.00 0.00 61 1004.6
20210226175023 37 225 0.0 0.0 0.00 0.00 0.00 61 1004.6
20210226174510 37 225 0.0 0.0 0.00 0.00 0.00 61 1004.6
20210226173957 37 315 0.0 1.0 0.00 0.00 0.00 61 1004.5
20210226173452 37 90 0.0 0.0 0.00 0.00 0.00 61 1004.6
20210226173032 38 351 0.0 0.0 0.00 0.00 0.00 61 1004.6
20210226172540 38 315 0.0 3.0 0.00 0.00 0.00 61 1004.4
20210226171932 38 315 5.0 9.0 0.00 0.00 0.00 61 1004.4
20210226170922 38 135 0.0 0.0 0.00 0.00 0.00 61 1004.1
20210226170415 38 225 0.0 0.0 0.00 0.00 0.00 61 1004.1
20210226165907 38 180 0.0 0.0 0.00 0.00 0.00 62 1003.9
20210226165400 38 135 0.0 0.0 0.00 0.00 0.00 62 1003.9
20210226164906 38 135 0.0 2.0 0.00 0.00 0.00 63 1003.9
20210226164348 37 135 0.0 2.0 0.00 0.00 0.00 63 1003.7
20210226163842 37 0 0.0 4.0 0.00 0.00 0.00 64 1003.7
20210226162930 36 225 0.0 0.0 0.00 0.00 0.00 65 1003.5
20210226162424 35 225 0.0 0.0 0.00 0.00 0.00 66 1003.5
20210226161416 33 135 0.0 0.0 0.00 0.00 0.00 67 1003.3
20210226160909 32 135 0.0 0.0 0.00 0.00 0.00 67 1003.3
20210226160358 32 225 0.0 0.0 0.00 0.00 0.00 66 1003.3
20210226155853 32 225 0.0 5.0 0.00 0.00 0.00 67 1003.2
20210226155348 31 283 5.0 5.0 0.00 0.00 0.00 67 1003.1
20210226154847 31 225 1.0 7.0 0.00 0.00 0.00 66 1002.9
20210226154336 31 315 0.0 3.0 0.00 0.00 0.00 66 1002.8
20210226153829 31 54 3.0 8.0 0.00 0.00 0.00 66 1002.8
20210226153326 31 135 4.0 4.0 0.00 0.00 0.00 66 1002.6
20210226152835 30 234 2.0 11.0 0.00 0.00 0.00 66 1002.7
20210226152549 30 238 11.0 11.0 0.00 0.00 0.00 66 1002.8
20210226130605 33 135 3.0 4.0 0.00 0.00 0.01 60 1001.6
20210226130050 33 225 3.0 3.0 0.00 0.00 0.01 60 1001.6
20210226125607 34 225 3.0 5.0 0.00 0.00 0.01 60 1001.7
20210226125339 34 225 4.0 5.0 0.00 0.00 0.01 60 1001.5
20210226123523 34 225 0.0 2.0 0.00 0.00 0.01 60 1001.4
20210226122541 35 315 0.0 5.0 0.00 0.00 0.01 59 1001.2
20210226122020 35 67 6.0 15.0 0.00 0.00 0.01 59 1001.3
20210226121512 35 54 10.0 14.0 0.00 0.00 0.01 59 1001.2
20210226120945 35 27 8.0 13.0 0.00 0.00 0.00 59 1001.1
20210226120440 35 13 13.0 14.0 0.00 0.00 0.00 59 1001.1
20210226115934 35 40 11.0 15.0 0.00 0.00 0.00 59 1000.8
20210226115140 35 346 8.0 8.0 0.00 0.00 0.00 59 1000.7
20210226114422 35 355 6.0 8.0 0.00 0.00 0.00 58 1000.5
20210226113908 35 45 7.0 7.0 0.00 0.00 0.00 58 1000.4
20210226113401 35 0 6.0 8.0 0.00 0.00 0.00 58 1000.4
20210226112937 35 346 5.0 6.0 0.00 0.00 0.00 58 1000.5
20210226112408 35 106 3.0 4.0 0.00 0.00 0.00 58 1000.4
20210226111337 35 13 4.0 5.0 0.00 0.00 0.00 58 1000.4
20210226110830 35 45 4.0 5.0 0.00 0.00 0.00 58 1000.3
20210226110325 36 0 4.0 4.0 0.00 0.00 0.00 58 1000.4
20210226105818 36 36 2.0 5.0 0.00 0.00 0.00 58 1000.2
20210226105311 36 40 4.0 5.0 0.00 0.00 0.00 58 1000.4
20210226104302 36 324 9.0 10.0 0.00 0.00 0.00 58 1000.4
20210226103818 36 315 9.0 12.0 0.00 0.00 0.00 57 1000.3
20210226103248 36 9 6.0 10.0 0.00 0.00 0.00 57 1000.4
20210226103021 36 328 4.0 6.0 0.00 0.00 0.00 57 1000.5
20210226102235 36 315 0.0 3.0 0.00 0.00 0.00 57 1000.4
20210226101728 36 0 1.0 4.0 0.00 0.00 0.00 57 1000.3
20210226101222 36 0 0.0 2.0 0.00 0.00 0.00 57 1000.3
20210226100210 36 315 0.0 0.0 0.00 0.00 0.00 56 1000.2
20210226095744 36 180 0.0 2.0 0.00 0.00 0.00 56 1000.1
20210226095207 36 225 0.0 6.0 0.00 0.00 0.00 56 1000.0
20210226094159 36 189 4.0 8.0 0.00 0.00 0.00 56 1000.0
20210226093641 36 139 4.0 7.0 0.00 0.00 0.00 56 999.9
20210226093132 36 180 6.0 8.0 0.00 0.00 0.00 56 999.9
20210226092935 36 139 7.0 8.0 0.00 0.00 0.00 56 999.9
20210226092125 36 135 5.0 9.0 0.00 0.00 0.00 56 999.8
20210226091657 36 144 5.0 7.0 0.00 0.00 0.00 56 999.8
20210226091109 37 148 5.0 8.0 0.00 0.00 0.00 56 999.8
20210226090603 37 139 7.0 7.0 0.00 0.00 0.00 56 999.7
20210226090102 37 148 6.0 8.0 0.00 0.00 0.00 56 999.8
20210226084028 37 180 5.0 5.0 0.00 0.00 0.00 56 999.8
20210226083524 37 135 5.0 5.0 0.00 0.00 0.00 55 999.8
20210226083030 37 144 0.0 7.0 0.00 0.00 0.00 55 999.9
20210226082547 37 144 6.0 7.0 0.00 0.00 0.00 55 999.9
20210226082009 37 153 5.0 9.0 0.00 0.00 0.00 55 999.8
20210226081458 37 180 5.0 13.0 0.00 0.00 0.00 55 999.9
20210226081129 37 175 13.0 13.0 0.00 0.00 0.00 55 999.9
20210226080716 37 148 4.0 10.0 0.00 0.00 0.00 55 999.8
20210226080209 37 166 8.0 10.0 0.00 0.00 0.00 55 999.9
20210226075702 37 180 8.0 12.0 0.00 0.00 0.00 55 1000.0
20210226075338 37 180 12.0 14.0 0.00 0.00 0.00 55 1000.1
20210226074649 38 175 8.0 16.0 0.00 0.00 0.00 55 1000.2
20210226074142 38 184 11.0 15.0 0.00 0.00 0.00 55 1000.3
20210226073636 38 202 15.0 15.0 0.00 0.00 0.00 55 1000.4
20210226073130 38 180 12.0 15.0 0.00 0.00 0.00 54 1000.4
20210226072807 38 180 11.0 17.0 0.00 0.00 0.00 54 1000.4
20210226072119 38 180 11.0 13.0 0.00 0.00 0.00 54 1000.6
20210226071611 38 157 7.0 10.0 0.00 0.00 0.00 54 1000.6
20210226071106 38 180 9.0 11.0 0.00 0.00 0.00 54 1000.6
20210226070559 38 184 9.0 15.0 0.00 0.00 0.00 54 1000.6
20210226070053 38 166 6.0 12.0 0.00 0.00 0.00 54 1000.6
20210226065547 38 180 10.0 13.0 0.00 0.00 0.00 53 1000.7
20210226064538 38 180 13.0 16.0 0.00 0.00 0.00 53 1000.7
20210226064035 38 180 10.0 13.0 0.00 0.00 0.00 53 1000.7
20210226063524 38 180 12.0 13.0 0.00 0.00 0.00 53 1000.8
20210226063028 38 180 10.0 13.0 0.00 0.00 0.00 54 1000.7
20210226062707 38 216 13.0 14.0 0.00 0.00 0.00 54 1000.8
20210226061521 38 216 12.0 13.0 0.00 0.00 0.00 54 1000.7
20210226060954 38 180 9.0 11.0 0.00 0.00 0.00 54 1000.6
20210226060445 38 180 7.0 13.0 0.00 0.00 0.00 54 1000.6
20210226055939 38 180 7.0 10.0 0.00 0.00 0.00 54 1000.5
20210226054953 38 193 12.0 18.0 0.00 0.00 0.00 53 1000.5
20210226054420 38 180 10.0 19.0 0.00 0.00 0.00 53 1000.6
20210226054115 38 180 19.0 19.0 0.00 0.00 0.00 53 1000.5
20210226053132 38 180 9.0 13.0 0.00 0.00 0.00 53 1000.5
20210226052757 38 180 11.0 12.0 0.00 0.00 0.00 53 1000.5
20210226052122 38 153 10.0 13.0 0.00 0.00 0.00 53 1000.4
20210226051617 38 180 9.0 12.0 0.00 0.00 0.00 53 1000.5
20210226051108 38 180 8.0 16.0 0.00 0.00 0.00 53 1000.4
20210226050602 38 193 15.0 15.0 0.00 0.00 0.00 53 1000.5
20210226050101 38 180 7.0 11.0 0.00 0.00 0.00 53 1000.6
20210226045550 38 175 8.0 15.0 0.00 0.00 0.00 53 1000.6
20210226045216 38 180 9.0 9.0 0.00 0.00 0.00 53 1000.7
20210226044538 38 135 10.0 11.0 0.00 0.00 0.00 53 1000.6
20210226044030 38 148 10.0 11.0 0.00 0.00 0.00 53 1000.7
20210226043526 38 139 8.0 9.0 0.00 0.00 0.00 53 1000.8
20210226043024 38 148 5.0 10.0 0.00 0.00 0.00 53 1000.8
20210226042641 38 180 12.0 12.0 0.00 0.00 0.00 53 1000.9
20210226042137 38 180 3.0 6.0 0.00 0.00 0.00 53 1000.8
20210226041629 38 135 6.0 8.0 0.00 0.00 0.00 53 1000.9
20210226041124 38 139 6.0 8.0 0.00 0.00 0.00 53 1000.8
20210226040113 38 148 5.0 9.0 0.00 0.00 0.00 52 1000.9
20210226035058 38 157 8.0 10.0 0.00 0.00 0.00 52 1001.1
20210226034557 38 166 7.0 13.0 0.00 0.00 0.00 52 1001.0